Location: Copeville
(33.0796°N, 96.4155°W)
Time: 00:27:41
(UTC+00:00)

Nadezhda 4 Rocket - Visible Passes

Search period start: 30 June 2022 00:00
Search period end: 10 July 2022 00:00
Orbit: 948 x 993 km, 82.9° (Epoch: 29 June)

Date Brightness Start Highest point End Pass type
(mag) Time Alt. Az. Time Alt. Az. Time Alt. Az.
02 Jul 6.8 10:32:09 10° ESE 10:34:55 13° E 10:37:40 10° NE visible
06 Jul 6.5 10:20:59 10° SE 10:25:17 20° E 10:29:35 10° NE visible
07 Jul 5.5 10:43:21 10° SSE 10:48:57 38° E 10:54:33 10° NNE visible
09 Jul 6.6 09:48:48 10° ESE 09:52:06 15° E 09:55:24 10° NE visible
